Simultaneous Nadir Overpasses (SNOs) Predictions

Prediction of SNOs between METOP-C and LANDSAT-8 Satellite Orbit:

Table of predicted SNOs for the next 14.0 days since TLE Epoch: 4/2/2022
Index Date (METOP-C) Time (METOP-C) Lat,Lon (METOP-C) SZA (METOP-C ) Date (LANDSAT-8) Time (LANDSAT-8) Lat,Lon (LANDSAT-8) SZA (LANDSAT-8 ) Distance(km) Time Diff (sec)
1 04/04/2022 15:45:31 -81.10, 162.59 102.85 04/04/2022 15:45:36 -81.09, 162.54 102.86 1.12 5
2 04/04/2022 16:36:10 81.12, -29.34 77.23 04/04/2022 16:35:01 81.12, -29.41 77.19 1.33 69
3 04/07/2022 10:29:14 81.08, 61.11 76.05 04/07/2022 10:30:24 81.07, 61.04 76.07 1.39 70
4 04/07/2022 11:19:53 -81.10,-130.99 103.89 04/07/2022 11:19:50 -81.09,-130.97 103.89 0.43 3
5 04/10/2022 06:03:34 81.09, 127.88 75.07 04/10/2022 06:04:36 81.09, 127.72 75.08 2.76 62
6 04/10/2022 06:54:13 -81.11, -64.26 104.88 04/10/2022 06:54:02 -81.11, -64.27 104.88 0.45 11
7 04/13/2022 01:37:57 81.07,-166.17 74.01 04/13/2022 01:38:50 81.07,-166.12 74.03 0.96 53
8 04/13/2022 02:28:34 -81.12, 2.42 105.85 04/13/2022 02:28:15 -81.12, 2.27 105.87 2.60 19
9 04/15/2022 21:12:18 81.08, -99.54 73.05 04/15/2022 21:13:02 81.09, -99.40 73.08 2.65 44



Historial Predications of SNOs between METOP-C and LANDSAT-8
